Santa Fe, NM

10:14 AM MST on December 10, 2016 (GMT -0700)
Santa Fe Municipal

Weather History for KSAF - September, 2012

Change the Weather History Date:

Monday, September 17, 2012

  Actual Average Record
Temperature  
Mean Temperature 62 °F -  
Max Temperature 81 °F 84 °F 89 °F (2010)
Min Temperature 44 °F 45 °F 37 °F (2006)
Degree Days  
Heating Degree Days 4    
Growing Degree Days 12 (Base 50)    
Moisture  
Dew Point 31 °F    
Average Humidity 35    
Maximum Humidity 71    
Minimum Humidity 11    
Precipitation  
Precipitation 0.00 in - - ()
Sea Level Pressure  
Sea Level Pressure 29.94 in    
Wind  
Wind Speed 7 mph (North)    
Max Wind Speed 38 mph    
Max Gust Speed 67 mph    
Visibility 10 miles    
Events      
Averages and records for this station are not official NWS values.
T = Trace of Precipitation, MM = Missing Value Source: NWS Daily Summary

Daily Weather History Graph

Daily Weather History Graph

Search for Another Location

Airport or City:

Trip Planner

Search our weather history database for the weather conditions in past years. The results will help you decide how hot, cold, wet, or windy it might be!

Date:

Astronomy

Sep. 17, 2012 Rise Set
Actual Time 6:48 AM MDT 7:07 PM MDT
Civil Twilight 6:23 AM MDT 7:33 PM MDT
Nautical Twilight 5:53 AM MDT 8:03 PM MDT
Astronomical Twilight 5:23 AM MDT 8:33 PM MDT
Moon 8:35 AM MDT (9/17) 7:58 PM MDT (9/17)
Length of Visible Light 13h 09m
Length of Day
12h 18m
Waxing Crescent, 4% of the Moon is Illuminated
Sep 17
Waxing Crescent
Sep 22
First Quarter
Sep 29
Full
Oct 8
Last Quarter
Oct 15
New

Hourly Weather History & Observations

Time (MDT) Temp. Dew Point Humidity Pressure Visibility Wind Dir Wind Speed Gust Speed Precip Events Conditions
12:53 AM 55.9 °F 30.9 °F 39% 29.87 in 10.0 mi Calm Calm - N/A   Clear
1:53 AM 54.0 °F 28.9 °F 38% 29.86 in 10.0 mi North 4.6 mph - N/A   Clear
2:53 AM 57.0 °F 25.0 °F 29% 29.84 in 10.0 mi Calm Calm - N/A   Clear
3:53 AM 50.0 °F 33.1 °F 52% 29.86 in 10.0 mi NNE 3.5 mph - N/A   Clear
4:53 AM 46.9 °F 33.1 °F 59% 29.87 in 10.0 mi Calm Calm - N/A   Clear
6:53 AM 44.1 °F 35.1 °F 71% 29.93 in 10.0 mi Calm Calm - N/A   Clear
8:53 AM 57.9 °F 30.0 °F 35% 29.96 in 10.0 mi Calm Calm - N/A   Clear
9:53 AM 62.1 °F 30.0 °F 30% 29.93 in 10.0 mi SE 3.5 mph - N/A   Clear
10:53 AM 66.9 °F 27.0 °F 22% 29.93 in 10.0 mi South 5.8 mph - N/A   Clear
11:53 AM 72.0 °F 26.1 °F 18% 29.88 in 10.0 mi Variable 3.5 mph - N/A   Clear
12:53 PM 75.9 °F 25.0 °F 15% 29.87 in 10.0 mi WSW 8.1 mph 17.3 mph N/A   Clear
1:53 PM 78.1 °F 21.0 °F 12% 29.83 in 10.0 mi SSW 16.1 mph 21.9 mph N/A   Clear
2:53 PM 78.1 °F 19.9 °F 11% 29.80 in 10.0 mi WSW 10.4 mph 19.6 mph N/A   Clear
3:53 PM 79.0 °F 19.9 °F 11% 29.79 in 10.0 mi SW 13.8 mph 25.3 mph N/A   Clear
4:53 PM 77.0 °F 19.9 °F 12% 29.81 in 10.0 mi WSW 13.8 mph 25.3 mph N/A   Clear
5:33 PM 68.0 °F 33.8 °F 28% 30.09 in 7.0 mi North 38.0 mph 66.7 mph N/A   Squalls
5:53 PM 64.9 °F 36.0 °F 34% 29.91 in 10.0 mi North 38.0 mph 49.5 mph N/A   Clear
6:53 PM 66.0 °F 33.1 °F 29% 29.96 in 10.0 mi NE 24.2 mph 31.1 mph N/A   Partly Cloudy
7:08 PM 66.2 °F 33.8 °F 30% 30.15 in 10.0 mi East 21.9 mph 29.9 mph N/A   Partly Cloudy
7:32 PM 62.6 °F 37.4 °F 39% 30.18 in 10.0 mi North 18.4 mph 25.3 mph N/A   Scattered Clouds
7:53 PM 60.1 °F 39.0 °F 46% 30.01 in 10.0 mi North 15.0 mph - N/A   Mostly Cloudy
8:53 PM 57.0 °F 39.0 °F 51% 30.02 in 10.0 mi NNE 11.5 mph - N/A   Clear
9:53 PM 55.9 °F 39.0 °F 53% 30.04 in 10.0 mi North 6.9 mph - N/A   Clear
10:53 PM 54.0 °F 39.9 °F 59% 30.04 in 10.0 mi NE 5.8 mph - N/A   Clear
11:53 PM 54.0 °F 39.9 °F 59% 30.04 in 10.0 mi Calm Calm - N/A   Clear